Weather in Kesova Gora

Russia / Tver Oblast     57°34′59″N   37°17′39″E
temp.,
°C
wind,
m/s
gust,
m/s
humid.,
%
clouds,
%
prec.,
mm/h
press.,
hPa
HPBL,
m
9 march, tue
tue900:00−16nnw469795 0.0 1011113
03:00−20nnw349875 0.1 101469
06:00−22nnw34987 0.0 101572
09:00−21nnw479728 0.0 1017241
12:00−18nnw459176 0.0 1018389
15:00−17nnw478980 0.0 1019499
18:00−20nnw469595 0.0 1021121
21:00−23n349873 0.0 102362
10 march, wed
wed1000:00−25n349850 0.0 102550
03:00−27n349825 0.0 102642
06:00−28n34980 0.0 102740
09:00−26n35960 0.0 1029156
12:00−20n248714 0.0 1029309
15:00−17nnw24827 0.0 1029387
18:00−20nw23910 0.0 102920
21:00−21wnw238818 0.0 103021
11 march, thu
thu1100:00−20wnw339192 0.0 103132
03:00−21nw339675 0.0 103124
06:00−22wnw23990 0.0 103220
09:00−19wnw22960 0.0 103263
12:00−14wsw128631 0.0 1032309
15:00−10sw248150 0.0 1031534
18:00−14ssw338915 0.0 102924
21:00−17ssw34878 0.0 102956
12 march, fri
fri1200:00−18ssw46910 0.0 102895
03:00−19ssw48910 0.0 1028149
06:00−20ssw48910 0.0 1027156
09:00−18s511840 0.0 1026266
12:00−13s510820 0.0 1024381
15:00−8s712830 0.0 1022605
18:00−9sse614850 0.0 1020485
21:00−10s7168617 0.0 1019616
13 march, sat
sat1300:00−10s71584100 0.0 1018665
03:00−10s71488100 0.1 1017682
06:00−9s71492100 0.2 1015652
09:00−8s71291100 0.3 1014739
12:00−6s71092100 0.3 1014757
15:00−4s61093100 0.7 1013698
18:00−4s4996100 0.5 1012374
21:00−2s489799 0.7 1012260